SCP
0 0 0 0 0 0 0 0 0 0 0 0 0 0 0 0 0 0 0 0 0 0 0 0 0 0 0 0 0 0 0 0 0 0 0 0 0 0
0 0 0 0 0 0 0 0 0 0 0 0 0 0 0 0 0 0 0 0 0 0 0 0 0 0 0 0 0 0 0 0 0 0 0 0 0 0
0 0 0 0 0 0 0 0 0 0 0 0 0 0 0 0 0 0 0 0 0 0 0 0 0 0 0 0 0 0 0 0 0 0 0 0 0 0
0 0 0 0 0 0 0 0 0 0 0 0 0 0 0 0 0 0 0 0 0 0 0 0 0 0 0 0 0 0 0 0 0 0 0 0 0 0
0 0 0 0 0 0 0 0 0 0 0 0 0 0 0 0 0 0 0 0 0 0 0 0 0 0 0 0 0 0 0 0 0 0 0 0 0 0
0 0 0 0 0 0 0 0 0 0 0 0 0 0 0 0 0 0 0 0 0 0 0 0 0 0 0 0 0 0 0 0 0 0 0 0 0 0
0 0 0 0 0 0 0 0 0 0 0 0 0 0 0 0 0 0 0 0 0 0 0 0 0 0 0 0 0 0 0 0 0 0 0 0 0 0
0 0 0 0 0 0 0 0 0 0 0 0 0 0 0 0 0 0 0 0 0 0 0 0 0 0 0 0 0 0 0 0 0 0 0 0 0 0
0 0 0 0 0 0 0 0 0 0 0 0 0 0 0 0 0 0 0 0 0 0 0 0 0 0 0 0 0 0 0 0 0 0 0 0 0 0
0 0 0 0 0 0 0 0 0 0 0 0 0 0 0 0 0 0 0 0 0 0 0 0 0 0 0 0 0 0 0 0 0 0 0 0 0 0
0 0 0 0 0 0 0 0 0 0 0 0 0 0 0 0 0 0 0 0 0 0 0 0 0 0 0 0 0 0 0 0 0 0 0 0 0 0
0 0 0 0 0 0 0 0 0 0 0 0 0 0 0 0 0 0 0 0 0 0 0 0 0 0 0 0 0 0 0 0 0 0 0 0 0 0
0 0 0 0 0 0 0 0 0 0 0 0 0 0 0 0 0 0 0 0 0 0 0 0 0 0 0 0 0 0 0 0 0 0 0 0 0 0
0 0 0 0 0 0 0 0 0 0 0 0 0 0 0 0 0 0 0 0 0 0 0 0 0 0 0 0 0 0 0 0 0 0 0 0 0 0
0 0 0 0 0 0 0 0 0 0 0 0 0 0 0 0 0 0 0 0 0 0 0 0 0 0 0 0 0 0 0 0 0 0 0 0 0 0
0 0 0 0 0 0 0 0 0 0 0 0 0 0 0 0 0 0 0 0 0 0 0 0 0 0 0 0 0 0 0 0 0 0 0 0 0 0
0 0 0 0 0 0 0 0 0 0 0 0 0 0 0 0 0 0 0 0 0 0 0 0 0 0 0 0 0 0 0 0 0 0 0 0 0 0
0 0 0 0 0 0 0 0 0 0 0 0 0 0 0 0 0 0 0 0 0 0 0 0 0 0 0 0 0 0 0 0 0 0 0 0 0 0
0 0 0 0 0 0 0 0 0 0 0 0 0 0 0 0 0 0 0 0 0 0 0 0 0 0 0 0 0 0 0 0 0 0 0 0 0 0
0 0 0 0 0 0 0 0 0 0 0 0 0 0 0 0 0 0 0 0 0 0 0 0 0 0 0 0 0 0 0 0 0 0 0 0 0 0
0 0 0 0 0 0 0 0 0 0 0 0 0 0 0 0 0 0 0 0 0 0 0 0 0 0 0 0 0 0 0 0 0 0 0 0 0 0
0 0 0 0 0 0 0 0 0 0 0 0 0 0 0 0 0 0 0 0 0 0 0 0 0 0 0 0 0 0 0 0 0 0 0 0 0 0
0 0 0 0 0 0 0 0 0 0 0 0 0 0 0 0 0 0 0 0 0 0 0 0 0 0 0 0 0 0 0 0 0 0 0 0 0 0
Wind_Speed
7 7 6 5 5 5 5 5 5 4 4 5 3 4 3 3 3 4 3 4 4 4 3 2 2 1 1 1 2 1 2 1 1 1 0 1 2 2
5 7 7 5 5 5 5 5 5 5 4 3 3 3 4 3 4 4 3 4 5 5 4 3 3 2 2 2 2 2 2 2 2 2 1 2 3 3
7 7 8 7 5 5 5 5 5 4 5 3 2 3 5 5 4 4 4 4 4 5 5 5 4 3 3 2 2 3 3 3 2 2 2 3 3 4
8 8 8 6 7 6 5 6 5 6 5 5 4 4 5 5 5 4 3 3 3 4 6 6 5 4 4 3 3 3 3 3 3 3 3 3 3 4
8 8 8 8 8 6 6 6 5 5 5 5 4 3 3 4 4 4 4 3 3 3 5 6 6 5 5 4 4 4 3 3 3 3 3 3 3 4
7 7 8 9 8 8 6 7 6 6 5 5 4 4 3 3 4 4 4 4 3 3 4 4 5 6 6 5 5 5 4 4 3 3 3 3 3 4
5 6 6 7 7 7 6 7 7 6 5 5 5 4 4 5 5 4 4 3 3 3 3 3 3 3 4 6 6 5 4 4 4 3 3 3 3 4
5 5 5 6 6 7 7 8 8 8 7 6 5 6 7 6 5 4 4 4 3 3 3 3 3 3 3 3 4 5 5 4 4 3 2 2 3 4
5 5 4 4 6 7 6 7 7 7 8 7 7 7 7 6 6 6 6 5 3 2 3 3 3 3 2 2 3 5 5 5 4 3 3 3 4 4
6 6 6 6 6 7 6 6 7 7 7 7 7 6 5 5 6 5 5 3 1 1 2 2 2 2 2 2 3 5 5 5 4 4 4 4 4 5
6 6 6 7 7 8 7 7 6 5 5 5 4 3 3 4 5 4 4 4 3 2 2 2 2 1 2 2 2 5 5 5 5 5 4 4 5 5
4 5 6 7 7 8 7 7 7 6 5 4 3 3 4 5 6 6 5 5 3 2 3 3 2 2 2 2 2 2 3 4 5 5 5 4 4 3
4 4 4 6 7 8 8 7 7 5 5 5 4 3 3 3 3 3 3 4 4 3 3 4 2 2 2 1 1 2 2 2 3 3 4 5 5 5
4 3 3 4 5 6 6 6 6 5 4 4 4 3 3 3 3 3 2 1 0 1 3 4 2 3 3 2 2 2 2 2 2 2 2 4 5 6
3 3 2 3 3 4 4 5 5 4 4 4 4 4 3 3 2 2 2 2 2 1 2 2 2 3 3 3 2 2 1 2 2 3 3 3 3 3
2 2 2 2 2 3 3 3 3 3 4 4 4 3 3 3 3 2 2 3 2 1 1 1 2 3 3 3 3 3 3 2 2 3 3 4 4 4
2 2 2 2 2 2 2 2 2 3 3 3 3 3 3 3 3 2 2 2 3 2 2 1 1 1 2 2 3 4 3 3 3 2 3 4 5 4
3 3 3 3 2 3 3 3 2 3 3 3 3 4 4 4 3 2 2 3 3 3 2 2 2 1 1 2 4 5 4 3 3 3 3 4 6 5
3 3 3 3 2 2 2 2 2 2 2 3 3 4 4 3 3 3 3 3 3 3 3 2 3 3 3 4 3 5 4 3 3 3 4 5 6 5
2 2 2 2 2 2 2 2 2 2 2 3 3 3 4 4 4 4 4 4 4 3 3 3 3 4 4 3 2 2 4 4 3 4 4 4 5 6
1 1 1 2 1 2 2 2 2 2 2 2 3 3 3 4 4 4 4 5 4 3 4 3 2 2 1 1 2 2 2 3 4 4 3 4 4 4
1 1 1 1 1 1 2 2 2 2 2 2 2 2 3 3 4 5 4 4 4 3 3 2 2 2 2 3 4 3 3 2 3 4 5 5 4 4
1 1 1 2 2 1 1 2 2 2 2 2 2 2 2 3 3 3 3 3 3 3 3 2 2 2 2 3 3 3 3 3 3 3 4 5 7 9
Wind_Direction
213 212 214 209 202 203 203 204 200 204 214 201 193 192 193 194 172 187 187 161 176 179 179 186 177 170 180 210 214 202 179 169 172 196 268 316 316 317
211 210 212 209 200 200 202 210 218 215 218 200 198 192 190 187 180 192 185 166 182 184 185 187 188 189 190 205 215 200 188 189 198 220 260 289 299 304
207 212 213 206 200 199 200 205 208 207 214 209 202 188 199 194 183 191 193 196 191 191 195 196 197 200 201 210 220 210 199 197 206 231 252 272 286 294
208 208 214 207 204 202 200 204 205 202 204 210 202 196 210 203 194 193 196 204 210 185 200 202 200 204 205 209 212 212 204 202 211 232 254 270 280 289
210 208 211 209 206 203 203 204 205 201 200 204 203 195 208 200 198 201 203 207 211 191 199 208 210 213 211 211 208 209 210 210 212 227 248 266 279 290
217 214 214 211 210 206 204 204 201 195 190 191 196 196 201 195 201 201 206 211 213 204 211 214 212 213 214 211 208 208 209 213 219 230 242 254 272 283
220 217 221 221 220 216 209 202 198 197 191 194 195 197 198 190 202 201 211 210 220 205 211 211 211 221 215 212 213 209 211 216 226 234 243 251 263 273
221 219 219 216 215 216 217 210 203 201 199 198 203 206 210 206 199 197 196 199 216 191 209 222 214 226 230 231 206 204 207 213 219 227 247 268 274 277
228 222 215 212 211 212 210 210 211 214 212 208 210 214 210 203 193 196 203 208 223 175 189 223 211 228 227 211 197 200 201 206 210 219 240 261 273 279
235 229 220 214 210 208 209 214 218 218 216 216 217 219 214 203 201 201 198 199 187 182 200 217 211 226 220 212 194 208 211 212 220 229 241 256 267 273
238 234 229 221 204 200 205 209 214 218 210 205 212 201 181 178 180 171 172 181 209 204 200 213 205 224 229 226 201 205 216 222 230 237 243 252 262 269
236 232 229 224 204 199 207 208 210 211 194 185 183 173 176 174 182 197 194 194 194 199 186 192 188 184 226 221 222 214 220 229 239 246 246 249 256 266
235 232 228 214 208 205 214 216 214 205 195 188 185 181 170 174 189 201 206 201 198 202 173 180 188 198 211 217 228 229 229 235 237 242 240 247 251 256
240 238 223 203 205 208 215 210 200 194 189 183 182 186 185 188 188 183 172 159 163 184 169 175 185 193 193 213 231 225 239 249 250 252 253 251 252 255
237 223 214 201 203 204 197 194 195 194 187 186 189 195 191 181 170 165 147 129 95 86 162 184 186 187 204 215 219 222 246 251 246 251 259 260 261 260
224 186 190 201 209 195 189 198 205 199 193 191 188 180 164 162 173 181 183 173 167 179 165 190 201 197 213 223 224 236 234 237 244 256 267 271 268 263
198 207 210 197 203 200 192 195 193 188 191 185 179 174 173 175 182 180 185 187 196 198 193 181 193 209 242 233 231 236 239 250 251 255 260 267 263 260
204 203 209 207 212 216 201 195 201 202 196 187 184 185 183 182 182 181 188 197 205 207 203 190 177 184 218 246 232 235 241 249 255 254 257 265 271 267
206 203 207 206 205 219 211 202 207 211 194 187 187 186 185 183 183 189 194 202 213 214 207 195 197 203 221 242 232 212 233 248 253 256 257 260 271 279
219 212 214 215 209 216 215 201 198 195 188 184 185 187 188 187 189 195 199 205 211 211 209 205 210 216 228 241 249 255 237 243 249 258 269 276 279 285
229 222 222 222 224 221 220 207 200 197 189 183 183 186 192 192 197 201 203 205 211 211 216 222 222 206 214 212 246 255 265 252 254 258 269 276 283 283
247 229 227 227 230 228 222 212 201 197 192 194 193 191 195 199 203 205 206 206 208 210 218 214 177 185 213 226 242 255 275 289 278 271 266 259 264 269
265 253 237 232 229 229 223 212 207 207 203 201 200 200 200 204 208 207 207 208 206 205 203 201 202 215 230 233 245 259 271 283 290 287 281 276 271 276